^^
Saratoga-Weather Station Historical Data
Daily Summary for September 6, 2020 Units:  Metric    English   Both
Daily Weekly Monthly Yearly Custom
  High: Low: Average:
Temperature: 14.3 °C 10.4 °C 12.1 °C
Dew Point: 12 °C 9.5 °C 10.6 °C
Humidity: 95% 83% 91%
Wind Speed: 22.7km/h 0km/h 5km/h
Wind Gust: 29km/h - -
Wind- - SW
Pressure: 1005.8 hPa 1002.4 hPa -
Precipitation: 11.9 mm    
Historical Graphs
 
 
Tabular Data for September 6, 2020
Time Temperature Dew Point Pressure Wind Wind Speed Wind Gust Humidity Rainfall Rate (Hourly) solar
00:04 12.2 °C 11.3 °C 1003.7 hPa WNW 6.4 km/h 12.9 km/h 94% 2.0 mm 0 W/m2
00:09 12.2 °C 11.3 °C 1003.7 hPa North 1.4 km/h 17.7 km/h 94% 2.0 mm 0 W/m2
00:14 12.2 °C 11.3 °C 1003.7 hPa North 3.2 km/h 11.3 km/h 94% 1.8 mm 0 W/m2
00:19 12.2 °C 11.3 °C 1003.7 hPa WNW 3.2 km/h 17.7 km/h 94% 1.8 mm 0 W/m2
00:24 12.2 °C 11.3 °C 1003.7 hPa WNW 3.2 km/h 9.7 km/h 94% 1.8 mm 0 W/m2
00:29 12.1 °C 11.2 °C 1003.7 hPa NW 3.2 km/h 17.7 km/h 94% 1.8 mm 0 W/m2
00:34 12.1 °C 11.2 °C 1004.1 hPa West 3.2 km/h 11.3 km/h 94% 1.8 mm 0 W/m2
00:39 12.1 °C 11.3 °C 1004.1 hPa WNW 3.2 km/h 9.7 km/h 95% 1.8 mm 0 W/m2
00:44 12.1 °C 11.3 °C 1004.1 hPa WNW 3.2 km/h 14.5 km/h 95% 1.8 mm 0 W/m2
00:49 12.1 °C 11.2 °C 1004.1 hPa NNW 4.7 km/h 12.9 km/h 94% 1.5 mm 0 W/m2
00:54 12.1 °C 11.2 °C 1004.4 hPa NW 3.2 km/h 16.1 km/h 94% 1.3 mm 0 W/m2
00:59 12.1 °C 11.2 °C 1004.1 hPa NW 3.2 km/h 25.7 km/h 94% 1.5 mm 0 W/m2
01:04 12.1 °C 11.2 °C 1004.4 hPa WSW 4.7 km/h 17.7 km/h 94% 1.5 mm 0 W/m2
01:09 12 °C 11.1 °C 1004.4 hPa West 6.4 km/h 25.7 km/h 94% 1.5 mm 0 W/m2
01:14 11.9 °C 11 °C 1004.4 hPa NE 1.4 km/h 16.1 km/h 94% 1.5 mm 0 W/m2
01:19 11.9 °C 11 °C 1004.1 hPa West 3.2 km/h 20.9 km/h 94% 1.5 mm 0 W/m2
01:24 12 °C 11.1 °C 1004.1 hPa WSW 14.3 km/h 16.1 km/h 94% 1.5 mm 0 W/m2
01:29 12 °C 11.1 °C 1004.4 hPa WSW 13 km/h 20.9 km/h 94% 1.3 mm 0 W/m2
01:34 12 °C 11.1 °C 1004.4 hPa NW 3.2 km/h 11.3 km/h 94% 1.3 mm 0 W/m2
01:39 12 °C 10.9 °C 1004.4 hPa NNE 1.4 km/h 25.7 km/h 93% 1.3 mm 0 W/m2
01:44 12 °C 10.9 °C 1004.7 hPa NW 4.7 km/h 12.9 km/h 93% 1.0 mm 0 W/m2
01:49 12 °C 10.9 °C 1004.7 hPa West 9.7 km/h 12.9 km/h 93% 1.0 mm 0 W/m2
01:54 11.9 °C 10.8 °C 1004.7 hPa WNW 6.4 km/h 19.3 km/h 93% 1.0 mm 0 W/m2
01:59 11.9 °C 10.8 °C 1004.7 hPa West 6.4 km/h 19.3 km/h 93% 0.8 mm 0 W/m2
02:04 11.9 °C 10.8 °C 1005.1 hPa West 3.2 km/h 19.3 km/h 93% 0.5 mm 0 W/m2
02:09 11.9 °C 10.8 °C 1005.1 hPa West 16.3 km/h 16.1 km/h 93% 0.5 mm 0 W/m2
02:14 11.9 °C 10.8 °C 1005.1 hPa WNW 19.5 km/h 20.9 km/h 93% 0.5 mm 0 W/m2
02:19 11.9 °C 10.6 °C 1005.1 hPa West 4.7 km/h 11.3 km/h 92% 0.5 mm 0 W/m2
02:24 11.8 °C 10.5 °C 1005.4 hPa WSW 13 km/h 19.3 km/h 92% 0.2 mm 0 W/m2
02:29 11.8 °C 10.5 °C 1005.4 hPa NNW 1.4 km/h 8 km/h 92% 0.2 mm 0 W/m2
02:34 11.8 °C 10.5 °C 1005.4 hPa WNW 4.7 km/h 19.3 km/h 92% 0.0 mm 0 W/m2
02:39 11.7 °C 10.4 °C 1005.4 hPa WNW 11.1 km/h 14.5 km/h 92% 0.0 mm 0 W/m2
02:44 11.7 °C 10.4 °C 1005.4 hPa West 3.2 km/h 12.9 km/h 92% 0.0 mm 0 W/m2
02:49 11.7 °C 10.4 °C 1005.4 hPa NE 6.4 km/h 8 km/h 92% 0.0 mm 0 W/m2
02:54 11.6 °C 10.3 °C 1005.8 hPa NNW 9.7 km/h 20.9 km/h 92% 0.0 mm 0 W/m2
02:59 11.5 °C 10.2 °C 1005.4 hPa West 3.2 km/h 12.9 km/h 92% 0.0 mm 0 W/m2
03:04 11.4 °C 10.1 °C 1005.4 hPa NW 4.7 km/h 14.5 km/h 92% 0.0 mm 0 W/m2
03:09 11.3 °C 10 °C 1005.4 hPa NE 1.4 km/h 19.3 km/h 92% 0.0 mm 0 W/m2
03:14 11.3 °C 10 °C 1005.4 hPa NW 17.7 km/h 17.7 km/h 92% 0.0 mm 0 W/m2
03:19 11.3 °C 10 °C 1005.4 hPa WNW 7.9 km/h 9.7 km/h 92% 0.0 mm 0 W/m2
03:24 11.3 °C 10 °C 1005.8 hPa Calm   8 km/h 92% 0.0 mm 0 W/m2
03:29 11.3 °C 10 °C 1005.8 hPa NW 1.4 km/h 6.4 km/h 92% 0.0 mm 0 W/m2
03:34 11.3 °C 10 °C 1005.8 hPa Calm   11.3 km/h 92% 0.0 mm 0 W/m2
03:39 11.3 °C 10 °C 1005.8 hPa WNW 3.2 km/h 8 km/h 92% 0.0 mm 0 W/m2
03:44 11.3 °C 10 °C 1005.4 hPa North 3.2 km/h 4.8 km/h 92% 0.0 mm 0 W/m2
03:49 11.3 °C 10 °C 1005.8 hPa NNW 3.2 km/h 6.4 km/h 92% 0.0 mm 0 W/m2
03:54 11.3 °C 10 °C 1005.8 hPa Calm   6.4 km/h 92% 0.0 mm 0 W/m2
03:59 11.3 °C 10 °C 1005.8 hPa WSW 4.7 km/h 11.3 km/h 92% 0.0 mm 0 W/m2
04:04 11.3 °C 10 °C 1005.8 hPa WNW 6.4 km/h 11.3 km/h 92% 0.0 mm 0 W/m2
04:09 11.3 °C 9.9 °C 1005.8 hPa SSW 3.2 km/h 8 km/h 91% 0.0 mm 0 W/m2
04:14 11.4 °C 10 °C 1005.8 hPa NNW 4.7 km/h 9.7 km/h 91% 0.0 mm 0 W/m2
04:19 11.4 °C 10 °C 1005.8 hPa WNW 9.7 km/h 9.7 km/h 91% 0.0 mm 0 W/m2
04:25 11.4 °C 10 °C 1005.8 hPa NNW 3.2 km/h 6.4 km/h 91% 0.0 mm 0 W/m2
04:30 11.4 °C 10 °C 1005.8 hPa ENE 4.7 km/h 9.7 km/h 91% 0.0 mm 0 W/m2
04:35 11.4 °C 10 °C 1005.8 hPa ENE 4.7 km/h 4.8 km/h 91% 0.0 mm 0 W/m2
04:40 11.3 °C 9.9 °C 1005.8 hPa NNE 1.4 km/h 14.5 km/h 91% 0.0 mm 0 W/m2
04:45 11.3 °C 9.9 °C 1005.8 hPa North 4.7 km/h 6.4 km/h 91% 0.0 mm 0 W/m2
04:50 11.3 °C 9.9 °C 1005.8 hPa WSW 4.7 km/h 9.7 km/h 91% 0.0 mm 0 W/m2
04:55 11.3 °C 9.9 °C 1005.8 hPa West 4.7 km/h 14.5 km/h 91% 0.0 mm 0 W/m2
05:00 11.4 °C 10 °C 1005.4 hPa East 6.4 km/h 6.4 km/h 91% 0.0 mm 0 W/m2
05:05 11.3 °C 9.9 °C 1005.4 hPa WNW 4.7 km/h 14.5 km/h 91% 0.0 mm 0 W/m2
05:10 11.3 °C 9.9 °C 1005.4 hPa NW 4.7 km/h 4.8 km/h 91% 0.0 mm 0 W/m2
05:15 11.3 °C 9.9 °C 1005.4 hPa West 1.4 km/h 12.9 km/h 91% 0.0 mm 0 W/m2
05:20 11.3 °C 9.9 °C 1005.4 hPa NNE 3.2 km/h 11.3 km/h 91% 0.0 mm 0 W/m2
05:25 11.3 °C 9.9 °C 1005.4 hPa NE 3.2 km/h 4.8 km/h 91% 0.0 mm 0 W/m2
05:30 11.3 °C 9.9 °C 1005.4 hPa North 1.4 km/h 9.7 km/h 91% 0.0 mm 0 W/m2
05:35 11.3 °C 9.9 °C 1005.4 hPa NE 3.2 km/h 6.4 km/h 91% 0.0 mm 0 W/m2
05:40 11.2 °C 9.9 °C 1005.4 hPa ENE 3.2 km/h 4.8 km/h 92% 0.0 mm 0 W/m2
05:45 11.2 °C 9.9 °C 1005.4 hPa NNW 3.2 km/h 4.8 km/h 92% 0.0 mm 0 W/m2
05:50 11.2 °C 9.9 °C 1005.4 hPa SW 3.2 km/h 9.7 km/h 92% 0.0 mm 0 W/m2
05:55 11.2 °C 9.8 °C 1005.4 hPa Calm   8 km/h 91% 0.0 mm 0 W/m2
06:00 11.2 °C 9.8 °C 1005.4 hPa NNW 1.4 km/h 4.8 km/h 91% 0.0 mm 0 W/m2
06:05 11.2 °C 9.8 °C 1005.4 hPa East 13 km/h 12.9 km/h 91% 0.0 mm 0 W/m2
06:10 11.2 °C 9.8 °C 1005.4 hPa WSW 1.4 km/h 4.8 km/h 91% 0.0 mm 0 W/m2
06:15 11.2 °C 9.8 °C 1005.1 hPa ESE 12.9 km/h 12.9 km/h 91% 0.0 mm 0 W/m2
06:20 11.2 °C 9.8 °C 1005.1 hPa SW 1.4 km/h 6.4 km/h 91% 0.0 mm 0 W/m2
06:25 11.2 °C 9.8 °C 1005.1 hPa Calm   4.8 km/h 91% 0.0 mm 0 W/m2
06:30 11.2 °C 9.8 °C 1005.1 hPa ENE 3.2 km/h 4.8 km/h 91% 0.0 mm 0 W/m2
06:35 11.2 °C 9.8 °C 1004.7 hPa NNE 1.4 km/h 3.2 km/h 91% 0.0 mm 0 W/m2
06:40 11.1 °C 9.7 °C 1004.7 hPa ENE 3.2 km/h 4.8 km/h 91% 0.0 mm 0 W/m2
06:45 11.1 °C 9.7 °C 1005.1 hPa NE 3.2 km/h 4.8 km/h 91% 0.0 mm 0 W/m2
06:50 10.9 °C 9.7 °C 1005.1 hPa Calm   6.4 km/h 92% 0.2 mm 0 W/m2
06:55 10.8 °C 9.6 °C 1005.1 hPa Calm   1.6 km/h 92% 0.5 mm 0 W/m2
07:00 10.7 °C 9.6 °C 1005.1 hPa NNW 3.2 km/h 4.8 km/h 93% 0.5 mm 0 W/m2
07:05 10.6 °C 9.5 °C 1005.1 hPa Calm   6.4 km/h 93% 0.5 mm 0 W/m2
07:10 10.6 °C 9.7 °C 1004.7 hPa NNW 1.4 km/h 4.8 km/h 94% 0.5 mm 0 W/m2
07:15 10.6 °C 9.7 °C 1004.7 hPa ENE 4.7 km/h 8 km/h 94% 0.5 mm 0 W/m2
07:20 10.6 °C 9.7 °C 1004.7 hPa NE 4.7 km/h 4.8 km/h 94% 0.5 mm 0 W/m2
07:25 10.6 °C 9.7 °C 1004.7 hPa NE 1.4 km/h 9.7 km/h 94% 0.5 mm 0 W/m2
07:30 10.5 °C 9.6 °C 1004.7 hPa NNE 1.4 km/h 4.8 km/h 94% 0.8 mm 0 W/m2
07:35 10.5 °C 9.6 °C 1004.7 hPa SE 3.2 km/h 3.2 km/h 94% 0.8 mm 0 W/m2
07:40 10.5 °C 9.6 °C 1004.7 hPa North 1.4 km/h 4.8 km/h 94% 0.8 mm 0 W/m2
07:45 10.5 °C 9.6 °C 1004.4 hPa WSW 3.2 km/h 3.2 km/h 94% 1.0 mm 0 W/m2
07:50 10.5 °C 9.7 °C 1004.4 hPa NE 3.2 km/h 3.2 km/h 95% 1.0 mm 0 W/m2
07:55 10.5 °C 9.7 °C 1004.4 hPa NE 1.4 km/h 4.8 km/h 95% 0.8 mm 0 W/m2
08:00 10.5 °C 9.7 °C 1004.4 hPa ENE 4.7 km/h 4.8 km/h 95% 1.0 mm 0 W/m2
08:05 10.4 °C 9.6 °C 1004.1 hPa NE 3.2 km/h 6.4 km/h 95% 1.0 mm 0 W/m2
08:10 10.5 °C 9.7 °C 1004.1 hPa NNW 1.4 km/h 6.4 km/h 95% 1.3 mm 9 W/m2
08:15 10.5 °C 9.7 °C 1004.1 hPa NW 4.7 km/h 8 km/h 95% 1.0 mm 25 W/m2
08:20 10.6 °C 9.8 °C 1004.1 hPa NNE 4.7 km/h 14.5 km/h 95% 1.0 mm 21 W/m2
08:25 10.6 °C 9.8 °C 1004.1 hPa NE 4.7 km/h 9.7 km/h 95% 1.0 mm 25 W/m2
08:30 10.7 °C 9.9 °C 1004.1 hPa NNE 3.2 km/h 14.5 km/h 95% 0.8 mm 18 W/m2
08:35 10.7 °C 9.9 °C 1004.1 hPa North 3.2 km/h 4.8 km/h 95% 1.0 mm 21 W/m2
08:40 10.8 °C 10 °C 1003.7 hPa North 4.7 km/h 8 km/h 95% 1.0 mm 12 W/m2
08:45 10.8 °C 10 °C 1003.7 hPa ENE 3.2 km/h 4.8 km/h 95% 1.0 mm 25 W/m2
08:50 10.8 °C 10 °C 1003.7 hPa NNE 3.2 km/h 4.8 km/h 95% 1.0 mm 25 W/m2
08:55 10.8 °C 10 °C 1003.7 hPa NE 7.9 km/h 8 km/h 95% 1.3 mm 39 W/m2
09:00 10.8 °C 10 °C 1003.7 hPa East 1.4 km/h 4.8 km/h 95% 1.5 mm 19 W/m2
09:05 10.8 °C 10 °C 1003.7 hPa NE 3.2 km/h 8 km/h 95% 1.5 mm 18 W/m2
09:10 10.9 °C 10.1 °C 1003.7 hPa ENE 1.4 km/h 12.9 km/h 95% 2.0 mm 26 W/m2
09:15 10.9 °C 10.1 °C 1003.4 hPa NW 4.7 km/h 6.4 km/h 95% 2.0 mm 32 W/m2
09:20 10.9 °C 10.1 °C 1003.4 hPa East 3.2 km/h 6.4 km/h 95% 2.3 mm 26 W/m2
09:25 10.9 °C 10 °C 1003.4 hPa NE 3.2 km/h 4.8 km/h 94% 2.5 mm 33 W/m2
09:30 11 °C 10.1 °C 1003.4 hPa East 3.2 km/h 9.7 km/h 94% 2.5 mm 40 W/m2
09:35 11 °C 10.2 °C 1003.4 hPa WNW 3.2 km/h 6.4 km/h 95% 2.3 mm 58 W/m2
09:40 11.1 °C 10.3 °C 1003.0 hPa Calm   4.8 km/h 95% 2.3 mm 46 W/m2
09:45 11.2 °C 10.3 °C 1003.0 hPa NE 3.2 km/h 8 km/h 94% 2.3 mm 49 W/m2
09:51 11.2 °C 10.3 °C 1003.0 hPa ESE 6.4 km/h 11.3 km/h 94% 2.3 mm 67 W/m2
09:56 11.2 °C 10.3 °C 1003.0 hPa NE 4.7 km/h 6.4 km/h 94% 2.0 mm 46 W/m2
10:01 11.2 °C 10.3 °C 1003.0 hPa NW 3.2 km/h 6.4 km/h 94% 1.5 mm 65 W/m2
10:06 11.2 °C 10.3 °C 1003.0 hPa ENE 6.4 km/h 12.9 km/h 94% 1.3 mm 47 W/m2
10:11 11.2 °C 10.3 °C 1002.7 hPa ENE 6.4 km/h 8 km/h 94% 1.0 mm 51 W/m2
10:16 11.2 °C 10.3 °C 1002.7 hPa North 3.2 km/h 8 km/h 94% 1.3 mm 69 W/m2
10:21 11.3 °C 10.5 °C 1002.7 hPa NE 4.7 km/h 8 km/h 95% 1.5 mm 77 W/m2
10:26 11.3 °C 10.5 °C 1002.7 hPa SSW 4.7 km/h 14.5 km/h 95% 1.3 mm 54 W/m2
10:31 11.3 °C 10.5 °C 1002.7 hPa East 7.9 km/h 8 km/h 95% 1.5 mm 60 W/m2
10:36 11.3 °C 10.5 °C 1002.7 hPa ENE 6.4 km/h 8 km/h 95% 1.5 mm 83 W/m2
10:41 11.3 °C 10.5 °C 1002.7 hPa East 1.4 km/h 16.1 km/h 95% 1.5 mm 60 W/m2
10:46 11.3 °C 10.5 °C 1002.7 hPa North 6.4 km/h 16.1 km/h 95% 1.5 mm 54 W/m2
10:51 11.4 °C 10.6 °C 1002.4 hPa NNW 3.2 km/h 8 km/h 95% 1.5 mm 56 W/m2
10:56 11.4 °C 10.6 °C 1002.7 hPa ESE 6.4 km/h 11.3 km/h 95% 1.5 mm 53 W/m2
11:01 11.4 °C 10.6 °C 1002.7 hPa WNW 6.4 km/h 12.9 km/h 95% 1.5 mm 47 W/m2
11:06 11.5 °C 10.7 °C 1002.7 hPa NNE 1.4 km/h 8 km/h 95% 1.5 mm 53 W/m2
11:11 11.6 °C 10.8 °C 1002.7 hPa North 3.2 km/h 12.9 km/h 95% 1.5 mm 47 W/m2
11:16 11.6 °C 10.8 °C 1002.7 hPa NNW 3.2 km/h 4.8 km/h 95% 1.5 mm 114 W/m2
11:21 11.7 °C 10.9 °C 1002.4 hPa North 4.7 km/h 20.9 km/h 95% 1.0 mm 149 W/m2
11:26 11.8 °C 11 °C 1002.7 hPa NNW 1.4 km/h 4.8 km/h 95% 1.0 mm 137 W/m2
11:31 11.8 °C 11 °C 1002.4 hPa NE 7.9 km/h 20.9 km/h 95% 1.0 mm 123 W/m2
11:36 11.9 °C 11.1 °C 1002.4 hPa West 6.4 km/h 8 km/h 95% 1.0 mm 84 W/m2
11:41 11.9 °C 11.1 °C 1002.7 hPa SW 1.4 km/h 6.4 km/h 95% 1.0 mm 65 W/m2
11:46 11.9 °C 11.1 °C 1002.4 hPa NE 6.4 km/h 6.4 km/h 95% 1.0 mm 56 W/m2
11:51 11.9 °C 11.1 °C 1002.4 hPa North 3.2 km/h 6.4 km/h 95% 0.8 mm 56 W/m2
11:56 11.9 °C 11.1 °C 1002.4 hPa NW 6.4 km/h 12.9 km/h 95% 1.0 mm 62 W/m2
12:01 11.9 °C 11.1 °C 1002.4 hPa NE 1.4 km/h 14.5 km/h 95% 1.0 mm 90 W/m2
12:06 12.1 °C 11.3 °C 1002.7 hPa NE 6.4 km/h 6.4 km/h 95% 1.0 mm 116 W/m2
12:11 12.2 °C 11.4 °C 1002.7 hPa WNW 11.1 km/h 22.5 km/h 95% 1.0 mm 69 W/m2
12:16 12.2 °C 11.4 °C 1003.0 hPa West 16.3 km/h 20.9 km/h 95% 2.3 mm 107 W/m2
12:21 12.2 °C 11.3 °C 1003.0 hPa WNW 7.9 km/h 22.5 km/h 94% 2.3 mm 171 W/m2
12:26 12.4 °C 11.5 °C 1002.7 hPa SW 7.9 km/h 12.9 km/h 94% 2.0 mm 185 W/m2
12:31 12.5 °C 11.4 °C 1002.7 hPa SW 1.4 km/h 11.3 km/h 93% 1.8 mm 260 W/m2
12:36 12.7 °C 11.6 °C 1002.7 hPa WNW 4.7 km/h 11.3 km/h 93% 1.8 mm 315 W/m2
12:41 12.9 °C 11.8 °C 1002.7 hPa WNW 7.9 km/h 16.1 km/h 93% 1.8 mm 211 W/m2
12:46 13.1 °C 11.8 °C 1003.0 hPa SW 11.1 km/h 17.7 km/h 92% 1.8 mm 267 W/m2
12:51 13.2 °C 11.9 °C 1002.7 hPa West 6.4 km/h 9.7 km/h 92% 1.8 mm 323 W/m2
12:56 13.3 °C 12 °C 1003.0 hPa NW 4.7 km/h 8 km/h 92% 1.5 mm 455 W/m2
13:01 13.4 °C 12 °C 1002.7 hPa NNW 7.9 km/h 12.9 km/h 91% 1.5 mm 185 W/m2
13:06 13.4 °C 11.8 °C 1002.7 hPa North 9.7 km/h 9.7 km/h 90% 1.5 mm 376 W/m2
13:11 13.6 °C 12 °C 1003.0 hPa NE 6.4 km/h 11.3 km/h 90% 1.5 mm 441 W/m2
13:16 13.7 °C 11.9 °C 1003.0 hPa NW 13 km/h 17.7 km/h 89% 0.2 mm 241 W/m2
13:21 13.7 °C 11.9 °C 1002.7 hPa WNW 6.4 km/h 14.5 km/h 89% 0.2 mm 199 W/m2
13:26 13.6 °C 11.8 °C 1002.7 hPa WNW 3.2 km/h 14.5 km/h 89% 0.2 mm 167 W/m2
13:31 13.7 °C 11.9 °C 1002.7 hPa West 3.2 km/h 6.4 km/h 89% 0.2 mm 156 W/m2
13:36 13.7 °C 11.9 °C 1002.7 hPa Calm   16.1 km/h 89% 0.0 mm 105 W/m2
13:41 13.6 °C 11.8 °C 1002.7 hPa NNW 4.7 km/h 8 km/h 89% 0.0 mm 134 W/m2
13:46 13.4 °C 11.8 °C 1002.7 hPa NW 3.2 km/h 16.1 km/h 90% 0.0 mm 116 W/m2
13:51 13.4 °C 11.8 °C 1003.0 hPa WNW 3.2 km/h 8 km/h 90% 0.0 mm 251 W/m2
13:56 13.4 °C 12 °C 1003.0 hPa NW 3.2 km/h 14.5 km/h 91% 0.2 mm 304 W/m2
14:01 13.4 °C 11.8 °C 1002.7 hPa SW 3.2 km/h 22.5 km/h 90% 0.2 mm 265 W/m2
14:06 13.6 °C 12 °C 1002.7 hPa North 3.2 km/h 11.3 km/h 90% 0.2 mm 237 W/m2
14:11 13.6 °C 12 °C 1003.0 hPa West 4.7 km/h 6.4 km/h 90% 0.2 mm 227 W/m2
14:16 13.6 °C 12 °C 1002.7 hPa WNW 22.7 km/h 22.5 km/h 90% 0.2 mm 206 W/m2
14:21 13.6 °C 11.8 °C 1002.7 hPa WNW 20.9 km/h 29 km/h 89% 0.2 mm 155 W/m2
14:26 13.7 °C 11.7 °C 1002.7 hPa West 3.2 km/h 16.1 km/h 88% 0.2 mm 155 W/m2
14:31 13.8 °C 11.8 °C 1002.7 hPa WNW 4.7 km/h 12.9 km/h 88% 0.2 mm 127 W/m2
14:36 13.7 °C 11.7 °C 1003.0 hPa West 13 km/h 17.7 km/h 88% 0.2 mm 153 W/m2
14:41 13.7 °C 11.7 °C 1003.0 hPa NW 4.7 km/h 9.7 km/h 88% 0.2 mm 188 W/m2
14:46 13.7 °C 11.7 °C 1003.0 hPa West 11.1 km/h 11.3 km/h 88% 0.2 mm 223 W/m2
14:51 13.7 °C 11.9 °C 1003.0 hPa WNW 13 km/h 17.7 km/h 89% 0.2 mm 190 W/m2
14:56 13.8 °C 11.8 °C 1003.0 hPa West 6.4 km/h 12.9 km/h 88% 0.0 mm 178 W/m2
15:01 13.8 °C 11.7 °C 1003.0 hPa WNW 11.1 km/h 14.5 km/h 87% 0.0 mm 162 W/m2
15:06 13.8 °C 11.7 °C 1003.0 hPa West 3.2 km/h 14.5 km/h 87% 0.0 mm 199 W/m2
15:11 13.8 °C 11.5 °C 1003.0 hPa NW 7.9 km/h 19.3 km/h 86% 0.0 mm 213 W/m2
15:16 13.7 °C 11.6 °C 1003.0 hPa SSW 3.2 km/h 12.9 km/h 87% 0.0 mm 251 W/m2
15:21 13.7 °C 11.4 °C 1002.7 hPa WNW 3.2 km/h 14.5 km/h 86% 0.0 mm 246 W/m2
15:26 13.8 °C 11.3 °C 1003.0 hPa NW 13 km/h 14.5 km/h 85% 0.0 mm 589 W/m2
15:31 14.1 °C 11.6 °C 1003.0 hPa NNW 7.9 km/h 9.7 km/h 85% 0.0 mm 538 W/m2
15:36 14.2 °C 11.5 °C 1003.0 hPa WSW 3.2 km/h 12.9 km/h 84% 0.0 mm 515 W/m2
15:41 14.3 °C 11.6 °C 1003.0 hPa WNW 13 km/h 16.1 km/h 84% 0.0 mm 490 W/m2
15:46 14.3 °C 11.6 °C 1003.0 hPa NW 11.1 km/h 11.3 km/h 84% 0.0 mm 422 W/m2
15:51 14.2 °C 11.5 °C 1003.0 hPa NNW 13 km/h 12.9 km/h 84% 0.0 mm 236 W/m2
15:56 14.2 °C 11.5 °C 1003.0 hPa WNW 3.2 km/h 9.7 km/h 84% 0.0 mm 98 W/m2
16:01 14.1 °C 11.3 °C 1003.0 hPa West 3.2 km/h 12.9 km/h 83% 0.0 mm 105 W/m2
16:06 13.9 °C 11.2 °C 1003.0 hPa NW 4.7 km/h 19.3 km/h 84% 0.0 mm 95 W/m2
16:11 13.8 °C 11.3 °C 1003.4 hPa SW 6.4 km/h 11.3 km/h 85% 0.0 mm 125 W/m2
16:16 13.6 °C 11.5 °C 1003.0 hPa NW 7.9 km/h 19.3 km/h 87% 0.2 mm 116 W/m2
16:21 13.3 °C 11.4 °C 1003.0 hPa NW 6.4 km/h 9.7 km/h 88% 0.2 mm 120 W/m2
16:26 13.2 °C 11.4 °C 1003.0 hPa East 1.4 km/h 19.3 km/h 89% 0.2 mm 130 W/m2
16:31 13.2 °C 11.6 °C 1003.0 hPa NNW 1.4 km/h 4.8 km/h 90% 0.2 mm 125 W/m2
16:36 13.2 °C 11.6 °C 1003.0 hPa NNW 3.2 km/h 12.9 km/h 90% 0.2 mm 244 W/m2
16:41 13.3 °C 11.7 °C 1002.7 hPa Calm   9.7 km/h 90% 0.2 mm 142 W/m2
16:46 13.3 °C 11.7 °C 1002.7 hPa NW 1.4 km/h 4.8 km/h 90% 0.2 mm 97 W/m2
16:51 13.3 °C 11.5 °C 1002.7 hPa NE 3.2 km/h 14.5 km/h 89% 0.2 mm 83 W/m2
16:56 13.4 °C 11.6 °C 1002.7 hPa NW 3.2 km/h 8 km/h 89% 0.2 mm 83 W/m2
17:01 13.4 °C 11.5 °C 1002.7 hPa NNE 3.2 km/h 14.5 km/h 88% 0.2 mm 67 W/m2
17:07 13.5 °C 11.4 °C 1003.0 hPa SSW 3.2 km/h 11.3 km/h 87% 0.2 mm 114 W/m2
17:12 13.6 °C 11.5 °C 1003.0 hPa NW 4.7 km/h 12.9 km/h 87% 0.2 mm 86 W/m2
17:17 13.6 °C 11.3 °C 1003.0 hPa WSW 6.4 km/h 16.1 km/h 86% 0.0 mm 144 W/m2
17:22 13.7 °C 11.2 °C 1003.0 hPa NW 13 km/h 24.1 km/h 85% 0.0 mm 105 W/m2
17:27 13.7 °C 11.4 °C 1003.0 hPa WNW 3.2 km/h 19.3 km/h 86% 0.0 mm 39 W/m2
17:32 13.7 °C 11.4 °C 1003.0 hPa NNW 7.9 km/h 24.1 km/h 86% 0.0 mm 81 W/m2
17:37 13.6 °C 11.3 °C 1003.0 hPa WSW 7.9 km/h 12.9 km/h 86% 0.0 mm 79 W/m2
17:42 13.6 °C 11.1 °C 1003.0 hPa WNW 1.4 km/h 4.8 km/h 85% 0.0 mm 69 W/m2
17:47 13.7 °C 11.2 °C 1003.0 hPa WNW 4.7 km/h 16.1 km/h 85% 0.0 mm 79 W/m2
17:52 13.7 °C 11.2 °C 1003.0 hPa SW 3.2 km/h 6.4 km/h 85% 0.0 mm 40 W/m2
17:57 13.7 °C 10.9 °C 1003.0 hPa West 9.7 km/h 11.3 km/h 83% 0.0 mm 42 W/m2
18:02 13.7 °C 10.9 °C 1003.0 hPa SW 3.2 km/h 8 km/h 83% 0.0 mm 70 W/m2
18:07 13.7 °C 10.9 °C 1003.0 hPa SW 1.4 km/h 8 km/h 83% 0.0 mm 49 W/m2
18:12 13.7 °C 10.9 °C 1003.0 hPa South 1.4 km/h 4.8 km/h 83% 0.0 mm 40 W/m2
18:17 13.6 °C 10.8 °C 1003.0 hPa WSW 1.4 km/h 6.4 km/h 83% 0.0 mm 25 W/m2
18:22 13.6 °C 10.8 °C 1003.0 hPa Calm   6.4 km/h 83% 0.0 mm 18 W/m2
18:27 13.4 °C 10.8 °C 1003.0 hPa West 1.4 km/h 9.7 km/h 84% 0.0 mm 14 W/m2
18:32 13.3 °C 10.7 °C 1003.0 hPa Calm   3.2 km/h 84% 0.0 mm 11 W/m2
18:37 13.2 °C 10.7 °C 1003.4 hPa West 4.7 km/h 6.4 km/h 85% 0.0 mm 9 W/m2
18:42 13.2 °C 10.7 °C 1003.0 hPa Calm   9.7 km/h 85% 0.0 mm 5 W/m2
18:47 13.1 °C 10.8 °C 1003.0 hPa Calm   6.4 km/h 86% 0.0 mm 0 W/m2
18:52 13 °C 10.9 °C 1003.4 hPa SW 3.2 km/h 8 km/h 87% 0.0 mm 0 W/m2
18:57 12.9 °C 10.8 °C 1003.4 hPa NNW 3.2 km/h 6.4 km/h 87% 0.2 mm 0 W/m2
19:02 12.9 °C 10.8 °C 1003.0 hPa South 4.7 km/h 12.9 km/h 87% 0.5 mm 0 W/m2
19:07 12.8 °C 10.7 °C 1003.0 hPa WSW 3.2 km/h 12.9 km/h 87% 0.5 mm 0 W/m2
19:12 12.7 °C 10.6 °C 1003.0 hPa NW 7.9 km/h 11.3 km/h 87% 0.5 mm 0 W/m2
19:17 12.7 °C 10.6 °C 1003.4 hPa West 6.4 km/h 14.5 km/h 87% 0.5 mm 0 W/m2
19:22 12.6 °C 10.5 °C 1003.0 hPa NE 1.4 km/h 9.7 km/h 87% 0.5 mm 0 W/m2
19:27 12.5 °C 10.4 °C 1003.4 hPa NW 1.4 km/h 14.5 km/h 87% 0.5 mm 0 W/m2
19:32 12.5 °C 10.6 °C 1003.4 hPa WSW 6.4 km/h 14.5 km/h 88% 0.5 mm 0 W/m2
19:37 12.4 °C 10.5 °C 1003.4 hPa SSW 3.2 km/h 14.5 km/h 88% 0.5 mm 0 W/m2
19:42 12.4 °C 10.5 °C 1003.7 hPa NW 1.4 km/h 11.3 km/h 88% 0.5 mm 0 W/m2
19:47 12.4 °C 10.5 °C 1003.7 hPa WNW 14.3 km/h 20.9 km/h 88% 0.5 mm 0 W/m2
19:52 12.4 °C 10.5 °C 1003.7 hPa WNW 13 km/h 20.9 km/h 88% 0.5 mm 0 W/m2
19:57 12.3 °C 10.4 °C 1003.7 hPa WNW 6.4 km/h 16.1 km/h 88% 0.2 mm 0 W/m2
20:02 12.2 °C 10.3 °C 1003.7 hPa West 3.2 km/h 14.5 km/h 88% 0.0 mm 0 W/m2
20:07 12.2 °C 10.4 °C 1003.7 hPa WNW 11.1 km/h 16.1 km/h 89% 0.0 mm 0 W/m2
20:12 12.1 °C 10.3 °C 1003.7 hPa WNW 14.3 km/h 22.5 km/h 89% 0.0 mm 0 W/m2
20:17 12.1 °C 10.3 °C 1003.7 hPa NW 6.4 km/h 11.3 km/h 89% 0.0 mm 0 W/m2
20:22 12.1 °C 10.3 °C 1003.7 hPa WNW 4.7 km/h 8 km/h 89% 0.0 mm 0 W/m2
20:27 12 °C 10.4 °C 1003.7 hPa WSW 16.3 km/h 16.1 km/h 90% 0.0 mm 0 W/m2
20:32 11.9 °C 10.1 °C 1003.7 hPa SW 6.4 km/h 17.7 km/h 89% 0.0 mm 0 W/m2
20:37 12 °C 10.2 °C 1003.7 hPa NNW 7.9 km/h 14.5 km/h 89% 0.0 mm 0 W/m2
20:42 11.9 °C 10.1 °C 1004.1 hPa NW 4.7 km/h 12.9 km/h 89% 0.0 mm 0 W/m2
20:47 11.9 °C 10.1 °C 1004.1 hPa WNW 11.1 km/h 16.1 km/h 89% 0.0 mm 0 W/m2
20:52 11.9 °C 10.1 °C 1004.1 hPa NW 3.2 km/h 3.2 km/h 89% 0.0 mm 0 W/m2
20:57 11.9 °C 10.3 °C 1004.1 hPa North 1.4 km/h 4.8 km/h 90% 0.0 mm 0 W/m2
21:02 11.8 °C 10.2 °C 1004.1 hPa WSW 3.2 km/h 8 km/h 90% 0.0 mm 0 W/m2
21:07 11.7 °C 10.1 °C 1004.4 hPa Calm   4.8 km/h 90% 0.0 mm 0 W/m2
21:12 11.7 °C 10.3 °C 1004.4 hPa Calm   3.2 km/h 91% 0.0 mm 0 W/m2
21:17 11.7 °C 10.3 °C 1004.4 hPa South 1.4 km/h 3.2 km/h 91% 0.0 mm 0 W/m2
21:22 11.8 °C 10.4 °C 1004.4 hPa South 1.4 km/h 6.4 km/h 91% 0.0 mm 0 W/m2
21:27 11.8 °C 10.4 °C 1004.4 hPa WNW 4.7 km/h 19.3 km/h 91% 0.0 mm 0 W/m2
21:32 11.8 °C 10.4 °C 1004.4 hPa North 3.2 km/h 4.8 km/h 91% 0.0 mm 0 W/m2
21:37 11.8 °C 10.4 °C 1004.4 hPa NNE 6.4 km/h 8 km/h 91% 0.0 mm 0 W/m2
21:42 11.8 °C 10.4 °C 1004.4 hPa Calm   3.2 km/h 91% 0.0 mm 0 W/m2
21:47 11.8 °C 10.2 °C 1004.4 hPa South 1.4 km/h 9.7 km/h 90% 0.0 mm 0 W/m2
21:52 11.9 °C 10.3 °C 1004.7 hPa NW 6.4 km/h 8 km/h 90% 0.0 mm 0 W/m2
21:57 11.9 °C 10.3 °C 1004.7 hPa Calm   3.2 km/h 90% 0.0 mm 0 W/m2
22:02 11.9 °C 10.3 °C 1004.7 hPa West 6.4 km/h 6.4 km/h 90% 0.0 mm 0 W/m2
22:07 11.9 °C 10.1 °C 1004.7 hPa WNW 6.4 km/h 19.3 km/h 89% 0.0 mm 0 W/m2
22:12 12 °C 10.2 °C 1004.7 hPa NW 4.7 km/h 19.3 km/h 89% 0.0 mm 0 W/m2
22:17 11.9 °C 10.1 °C 1005.1 hPa West 4.7 km/h 12.9 km/h 89% 0.0 mm 0 W/m2
22:22 11.9 °C 10.1 °C 1005.1 hPa North 6.4 km/h 12.9 km/h 89% 0.0 mm 0 W/m2
22:27 11.9 °C 10 °C 1005.1 hPa WSW 4.7 km/h 12.9 km/h 88% 0.0 mm 0 W/m2
22:32 11.9 °C 10.1 °C 1005.1 hPa SW 6.4 km/h 12.9 km/h 89% 0.0 mm 0 W/m2
22:37 11.8 °C 10 °C 1005.1 hPa WSW 3.2 km/h 14.5 km/h 89% 0.0 mm 0 W/m2
22:42 11.8 °C 10 °C 1005.1 hPa West 9.7 km/h 9.7 km/h 89% 0.0 mm 0 W/m2
22:47 11.8 °C 10 °C 1005.4 hPa North 3.2 km/h 17.7 km/h 89% 0.0 mm 0 W/m2
22:52 11.8 °C 10 °C 1005.4 hPa WNW 4.7 km/h 9.7 km/h 89% 0.0 mm 0 W/m2
22:57 11.8 °C 10 °C 1005.4 hPa West 9.7 km/h 9.7 km/h 89% 0.2 mm 0 W/m2
23:02 11.7 °C 9.9 °C 1005.4 hPa NW 16.3 km/h 16.1 km/h 89% 0.2 mm 0 W/m2
23:07 11.7 °C 9.9 °C 1005.4 hPa West 1.4 km/h 12.9 km/h 89% 0.2 mm 0 W/m2
23:12 11.6 °C 10 °C 1005.4 hPa West 6.4 km/h 9.7 km/h 90% 0.2 mm 0 W/m2
23:17 11.6 °C 10 °C 1005.4 hPa WNW 4.7 km/h 8 km/h 90% 0.2 mm 0 W/m2
23:23 11.6 °C 10 °C 1005.4 hPa WNW 16.3 km/h 16.1 km/h 90% 0.2 mm 0 W/m2
23:28 11.5 °C 9.9 °C 1005.8 hPa WSW 4.7 km/h 12.9 km/h 90% 0.2 mm 0 W/m2
23:33 11.5 °C 9.9 °C 1005.4 hPa NW 6.4 km/h 14.5 km/h 90% 0.5 mm 0 W/m2
23:38 11.4 °C 9.8 °C 1005.8 hPa West 3.2 km/h 6.4 km/h 90% 0.5 mm 0 W/m2
23:43 11.5 °C 9.9 °C 1005.8 hPa NNW 3.2 km/h 9.7 km/h 90% 0.5 mm 0 W/m2
23:48 11.5 °C 9.9 °C 1005.8 hPa North 3.2 km/h 4.8 km/h 90% 0.5 mm 0 W/m2
23:53 11.5 °C 10.1 °C 1005.4 hPa NW 6.4 km/h 8 km/h 91% 0.5 mm 0 W/m2
23:58 11.5 °C 9.9 °C 1005.4 hPa WNW 3.2 km/h 16.1 km/h 90% 0.2 mm 0 W/m2
Juneau County Weather
Compliments of Weather Underground - 4 mb